OpenBCM V1.13 (Linux)

Packet Radio Mailbox

DB0FHN

[JN59NK Nuernberg]

 Login: GUEST





  
F1EBE  > KEPLER   16.02.03 23:15l 105 Lines 5491 Bytes #999 (0) @ EU
BID : 1552_F5KAR
Read: DB0FHN GUEST
Subj: 2L Satell Amat 046.jours
Path: DB0FHN<DB0RGB<DB0MRW<DB0ERF<DB0FBB<DB0GOS<ON0AR<ON0AR<7M3TJZ<F6CDD<
      F6KBI<F4CEP<F1HCI<F6KBF<F1FPP<F8KGK<F8KAE<F5KAR
Sent: 030216/0829Z @:F5KAR.FNOR.FRA.EU #:1552 [Rouen] FBB7.00i $:1552_F5KAR
From: F1EBE@F5KAR.FNOR.FRA.EU
To  : KEPLER@EU


AO-7                    
1 07530U 74089B   03044.66387538 -.00000029  00000-0  10000-3 0  1493
2 07530 101.7611  92.4958 0012295  87.8730 272.3745 12.53564338292578
AO-10                   
1 14129U 83058B   03041.63642645  .00000117  00000-0  10000-3 0  9167
2 14129  25.9157 165.6251 6028355 326.7167   6.8087  2.05866882119909
UO-11                   
1 14781U 84021B   03046.56476696  .00001930  00000-0  27487-3 0   713
2 14781  98.1172  20.4637 0008378 216.2099 143.8545 14.77990856 15796
UO-14                   
1 20437U 90005B   03045.65368292  .00000155  00000-0  74080-4 0  1641
2 20437  98.2738  89.4548 0009966 210.8974 149.1622 14.31236650681937
AO-16                   
1 20439U 90005D   03044.69065068  .00000172  00000-0  80497-4 0  8512
2 20439  98.3187 100.1926 0010193 221.1714 138.8713 14.31469963681830
DO-17                   
1 20440U 90005E   03046.21798503  .00000200  00000-0  90692-4 0  7273
2 20440  98.3378 105.5413 0010156 216.6619 143.3871 14.31748603682126
WO-18                   
1 20441U 90005F   03046.20940688  .00000182  00000-0  84136-4 0   128
2 20441  98.3336 104.7456 0011037 215.2227 144.8227 14.31552521682109
LO-19                   
1 20442U 90005G   03045.69900626  .00000214  00000-0  95976-4 0  9634
2 20442  98.3481 107.2730 0011137 217.7052 142.3350 14.31715492682083
FO-20                   
1 20480U 90013C   03044.94634508  .00000021  00000-0  11862-3 0  4648
2 20480  99.0470   8.5588 0540693  14.3469 347.2321 12.83330166609924
RS-12/13                
1 21089U 91007A   03044.88149015  .00000075  00000-0  63542-4 0  4906
2 21089  82.9234 184.8530 0028080 301.7096  58.1322 13.74403715603143
UO-22                   
1 21575U 91050B   03046.51820133  .00000388  00000-0  13852-3 0  7260
2 21575  98.1405  38.7936 0008056 136.3461 223.8366 14.39152793607847
KO-23                   
1 22077U 92052B   03044.90301753 -.00000037  00000-0  10000-3 0  1677
2 22077  66.0871 135.5003 0015530 274.9907  84.9338 12.86408271493704
AO-27                   
1 22825U 93061C   03045.55121385  .00000172  00000-0  84204-4 0  4863
2 22825  98.2746  75.4523 0007514 272.1556  87.8769 14.28941904489309
IO-26                   
1 22826U 93061D   03045.16204965  .00000175  00000-0  85121-4 0  3082
2 22826  98.2765  76.1977 0008197 275.7746  84.2500 14.29164345489299
KO-25                   
1 22828U 93061F   03045.63338621  .00000137  00000-0  69649-4 0  4258
2 22828  98.2715  76.9077 0009094 248.8802 111.1409 14.29506703457567
POSAT                   
1 22829U 93061G   03045.64329356  .00000240  00000-0  10938-3 0  4504
2 22829  98.2730  77.5211 0008896 249.8088 110.2137 14.29766269489498
RS-15                   
1 23439U 94085A   03044.94768411 -.00000042  00000-0  12993-4 0  6888
2 23439  64.8154  48.9543 0146897 116.1058 245.5064 11.27547626335076
FO-29                   
1 24278U 96046B   03045.84364011  .00000040  00000-0  78812-4 0  5605
2 24278  98.5331 197.5680 0350149 226.0612 131.1156 13.52872359320807
TO-31                   
1 25396U 98043C   03044.96706711 -.00000043  00000-0  00000-0 0  8725
2 25396  98.6282 122.1656 0003785 137.5467 222.6006 14.23509149238875
GO-32                   
1 25397U 98043D   03044.91677917  .00000060  00000-0  45693-4 0  1324
2 25397  98.6227 121.0012 0001848 134.6084 225.5246 14.22958357238832
SO-33                   
1 25509U 98061B   03045.66451105  .00001197  00000-0  22612-3 0  7795
2 25509  31.4290 175.2243 0358399 268.7552  87.2014 14.27430090224750
PO-34                   
1 25520U 98064B   03044.94460458  .00003449  00000-0  17547-3 0  6446
2 25520  28.4589 254.6590 0005591 297.4125  62.5922 15.13863402236889
ISS              
1 25544U 98067A   03046.36010417  .00023029  00000-0  30200-3 0  6929
2 25544  51.6345 272.0950 0012381 204.0953 140.7481 15.58368100241996
UO-36                   
1 25693U 99021A   03046.36652821  .00000817  00000-0  13665-3 0  7057
2 25693  64.5600  20.5862 0020101 315.9927  43.9575 14.76387220205786
OO-38                   
1 26063U 00004C   03044.67618573  .00000177  00000-0  81699-4 0  7209
2 26063 100.2136  98.3687 0036951 301.1050  58.6501 14.35479375159689
SO-41                   
1 26545U 00057A   03044.67729753  .00001672  00000-0  24009-3 0  4125
2 26545  64.5589  46.9563 0052396 239.6404 119.9527 14.78971219128506
MO-46                   
1 26548U 00057D   03044.43732435  .00002139  00000-0  28733-3 0  4175
2 26548  64.5580  40.6409 0045785 238.6835 120.9788 14.81255826128617
SO-42                   
1 26549U 00057E   03044.98052980  .00001415  00000-0  21056-3 0  6928
2 26549  64.5517  50.1147 0056936 239.5877 119.9601 14.77908363128460
AO-40                   
1 26609U 00072B   03046.24037137 -.00000118  00000-0  10000-3 0  3115
2 26609   8.0800  64.6767 7942000 144.0329 312.8612  1.25596569 10543
PCsat-44                   
1 26931U 01043C   03044.97623006  .00000199  00000-0  11090-3 0  4182
2 26931  67.0476 267.4380 0005010 264.6710  95.3823 14.29112994 71690
NO-45                   
1 26932U 01043D   03044.95484926  .00000117  00000-0  78466-4 0  4166
2 26932  67.0552 267.2001 0005104 240.5858 119.4726 14.29292806 71718
AO-49                   
1 27605U 02058A   03044.89029666  .00000515  00000-0  10396-3 0   570
2 27605  64.5524 211.4435 0034873 115.2981 245.1748 14.71353621  8125
SO-50                   
1 27607U 02058C   03044.94813746  .00001411  00000-0  25472-3 0   542
2 27607  64.5507 211.6757 0037665 112.3657 248.1439 14.69891000  8122



Read previous mail | Read next mail


 11.09.2026 08:05:22lGo back Go up